Bagni di Tivol, Italy

11:25 AM CEST on April 19, 2018 (GMT +0200)
Rome | | Change Station

Elev 200 ft 41.92 °N, 12.50 °E | Updated 1 minute ago

Clear
Clear
67.3 °F
Feels Like 67.3 °F
N
1.9
Wind Variable Wind from SSE
Gusts 5.0 mph

Today
High -- | Low -- °F
--% Chance of Precip.
Yesterday
High -- | Low -- °F
Precip. -- in
Pressure 30.24 in
Visibility -9999.0 miles
Clouds
Dew Point 59 °F
Humidity 75%
Rainfall 0.00 in
Snow Depth Not available.
6:23 AM 7:55 PM
Waxing Crescent, 14% visible
METAR LIRG 190855Z 28004KT CAVOK 21/12 Q1024 RMK SKC MON NE LIB NC VIS MIN 9999 BLU
Pressure 30.24 in
Visibility -9999.0 miles
Clouds
Dew Point 59 °F
Humidity 75%
Rainfall 0.00 in
Snow Depth Not available.
6:23 AM 7:55 PM
Waxing Crescent, 14% visible
METAR LIRG 190855Z 28004KT CAVOK 21/12 Q1024 RMK SKC MON NE LIB NC VIS MIN 9999 BLU

Get Severe Weather Alerts

Thanks for signing up!

Be on the lookout for a verification email in your inbox.

You'll start receiving the daily forecast at 6 AM.

×

10-Day Weather Forecast

×

Almanac

Astronomy

Apr. 19, 2018 Rise Set
Actual Time
Civil Twilight
Nautical Twilight
Astronomical Twilight
Moon
Length of Visible Light
Length of Day
Tomorrow will be .
, % of the Moon is Illuminated

Today's Extremes

Country Highs Country Lows

Community

WunderPhotos

Category 6

Welcome to Category 6. This is the collective home for Weather Underground's featured writeups by Dr. Jeff Masters (right), Bob Henson (left), Chris Burt, and other regular contributors.

Nearby

Air Quality

  Air Quality AQ Index Pollutant
Not available.

Snow Depth

Station Depth Elevation

Earthquake Activity

City Distance Mag. Time & Date
Minimum magnitude displayed is 2.5.

Coastal Water Temperatures

Place Temperature

Stations

Nearby Weather Stations

Station Location Temp. Windchill Dew Point Humidity Wind Precip. Elev Updated Type